Flag for USA

Past Weather in Tulsa, Oklahoma, USA — Yesterday and Last 2 Weeks

Now
80 °F

Passing clouds.


Feels Like: 85 °F
Forecast: 96 / 80 °F
Wind: 8 mph from Southeast

Location: Tulsa International Airport

Current Time: Jul 15, 2020 at 7:16:29 am

Latest Report: Jul 15, 2020 at 5:53 am


Visibility: 10 mi

Pressure: 29.84 "Hg

Humidity: 85%

Dew Point: 75 °F

Location of TulsaLocation

Past Weather in Tulsa — Graph

°F

Tulsa Temperature Yesterday

Maximum temperature yesterday: 95 °F (at 4:53 pm)
Minimum temperature yesterday: 78 °F (at 2:53 am)
Average temperature yesterday: 86 °F

High & Low Weather Summary for the Past Weeks

 TemperatureHumidityPressure
High97 °F (Jul 11, 3:53 pm)100% (Jul 5, 5:22 am)30.14 "Hg (Jul 5, 5:22 am)
Low70 °F (Jul 9, 11:17 am)37% (Jul 12, 3:53 pm)29.67 "Hg (Jun 30, 5:53 pm)
Average82 °F72%29.87 "Hg
* Reported Jun 30 5:53 am — Jul 15 5:53 am, Tulsa. Weather by CustomWeather, © 2020

Note: Actual official high and low records may vary slightly from our data, if they occured in-between our weather recording intervals... More about our weather records

Tulsa Weather History for the Previous 24 Hours

Scroll right to see more
 ConditionsComfort  
Time TempWeatherWind HumidityBarometerVisibility
5:53 am
Wed, Jul 15
80 °FPassing clouds.8 mph85%29.84 "Hg10 mi
4:53 am81 °FPartly cloudy.3 mph77%29.84 "Hg10 mi
3:53 am82 °FPartly cloudy.3 mph77%29.82 "Hg10 mi
2:53 am83 °FPartly cloudy.6 mph72%29.81 "Hg10 mi
1:53 am83 °FPartly cloudy.9 mph72%29.78 "Hg10 mi
12:53 am85 °FPartly cloudy.9 mph68%29.80 "Hg10 mi
11:53 pm
Tue, Jul 14
86 °FPassing clouds.9 mph63%29.81 "Hg10 mi
10:53 pm87 °FPassing clouds.12 mph63%29.79 "Hg10 mi
9:53 pm89 °FPassing clouds.7 mph61%29.78 "Hg10 mi
8:53 pm91 °FPassing clouds.10 mph60%29.77 "Hg10 mi
7:53 pm93 °FPassing clouds.10 mph56%29.77 "Hg10 mi
6:53 pm94 °FPassing clouds.14 mph51%29.76 "Hg10 mi
5:53 pm95 °FPassing clouds.10 mph51%29.75 "Hg10 mi
4:53 pm95 °FScattered clouds.12 mph52%29.75 "Hg10 mi
3:53 pm94 °FScattered clouds.16 mph52%29.74 "Hg10 mi
2:53 pm94 °FScattered clouds.16 mph51%29.75 "Hg10 mi
1:53 pm93 °FScattered clouds.14 mph54%29.77 "Hg10 mi
12:53 pm91 °FScattered clouds.12 mph60%29.78 "Hg10 mi
11:53 am90 °FScattered clouds.12 mph59%29.79 "Hg10 mi
10:53 am87 °FScattered clouds.13 mph67%29.81 "Hg10 mi
9:53 am84 °FBroken clouds.10 mph74%29.82 "Hg10 mi
8:53 am81 °FMore clouds than sun.6 mph79%29.85 "Hg10 mi
7:53 am81 °FOvercast.14 mph79%29.81 "Hg10 mi
Weather by CustomWeather, © 2020

See weather overview